This demonstration page uses our WeatherBlox Daily Observations layout. Learn more.

Hourly Observations for December 15, 2018

Temp ( °F °C ) Dew Point ( °F °C ) Humidity (%) Winds ( mph kmh ) Pressure ( in mb ) Visibility ( mi km ) Precip ( " mm )
12:15 am 00:15 Clear 28 -2.4 25 -3.8 90 90 Calm 30.3 1026 10 16.0934 0 0
12:35 am 00:35 Clear 27 -3 25 -3.7 95 95 Calm 30.27 1025 10 16.0934 0 0
12:55 am 00:55 Clear 27 -2.6 26 -3.5 94 94 Calm 30.27 1025 10 16.0934 0 0
1:15 am 01:15 Clear 25 -3.9 24 -4.7 94 94 Calm 30.27 1025 10 16.0934 0 0
1:35 am 01:35 Clear 25 -4 24 -4.5 96 96 Calm 30.27 1025 10 16.0934 0 0
1:55 am 01:55 Clear 25 -4.1 23 -4.8 95 95 Calm 30.27 1025 10 16.0934 0 0
2:15 am 02:15 Clear 26 -3.3 24 -4.3 93 93 Calm 30.27 1025 10 16.0934 0 0
2:35 am 02:35 Clear 26 -3.2 25 -3.8 96 96 S 3 6 30.27 1025 10 16.0934 0 0
2:55 am 02:55 Clear 24 -4.5 22 -5.3 94 94 Calm 30.27 1025 10 16.0934 0 0
3:15 am 03:15 Clear 28 -2.4 26 -3.4 93 93 Calm 30.27 1025 10 16.0934 0 0
3:35 am 03:35 Clear 28 -2.4 25 -3.7 91 91 WSW 3 6 30.27 1025 10 16.0934 0 0
3:55 am 03:55 Clear 29 -1.7 25 -3.7 86 86 Calm 30.24 1024 10 16.0934 0 0
4:15 am 04:15 Clear 30 -1.2 27 -2.9 88 88 Calm 30.24 1024 10 16.0934 0 0
4:35 am 04:35 Clear 30 -1 27 -3 86 86 S 6 9 30.24 1024 10 16.0934 0 0
4:55 am 04:55 Clear 28 -2 26 -3.4 90 90 SSW 3 6 30.24 1024 10 16.0934 0 0
5:15 am 05:15 Clear 25 -3.8 24 -4.5 95 95 SSW 5 7 30.27 1025 10 16.0934 0 0
5:35 am 05:35 Clear 27 -2.7 25 -4 91 91 S 3 6 30.27 1025 10 16.0934 0 0
5:55 am 05:55 Clear 26 -3.5 24 -4.5 93 93 S 5 7 30.27 1025 10 16.0934 0 0
6:15 am 06:15 Clear 25 -3.7 24 -4.4 95 95 SW 6 9 30.27 1025 10 16.0934 0 0
6:35 am 06:35 Clear 28 -2 25 -4 86 86 SW 7 11 30.24 1024 10 16.0934 0 0
6:55 am 06:55 Clear 28 -2.5 24 -4.2 88 88 SW 6 9 30.27 1025 10 16.0934 0 0
7:15 am 07:15 Clear 28 -2.4 24 -4.2 88 88 SW 7 11 30.27 1025 10 16.0934 0 0
7:35 am 07:35 Clear 28 -2 25 -3.8 88 88 SSW 6 9 30.24 1024 10 16.0934 0 0
7:55 am 07:55 Sunny 27 -2.6 24 -4.2 89 89 SSW 6 9 30.27 1025 10 16.0934 0 0
8:15 am 08:15 Sunny 28 -2.2 25 -3.8 89 89 S 6 9 30.24 1024 10 16.0934 0 0
8:35 am 08:35 Sunny 27 -3 24 -4.2 92 92 SSE 7 11 30.27 1025 10 16.0934 0 0
8:55 am 08:55 Sunny 28 -2.3 26 -3.4 92 92 S 7 11 30.21 1023 10 16.0934 0 0
9:15 am 09:15 Sunny 31 -0.5 28 -2.3 88 88 S 12 19 30.21 1023 10 16.0934 0 0
9:35 am 09:35 Sunny 32 0.1 28 -2.1 85 85 S 10 17 30.21 1023 10 16.0934 0 0
9:55 am 09:55 Sunny 34 0.9 28 -2.2 80 80 S 12 19 30.21 1023 10 16.0934 0 0
10:15 am 10:15 Sunny 37 2.5 28 -2.1 72 72 S 10 17 30.21 1023 10 16.0934 0 0
10:35 am 10:35 Sunny 37 3 29 -1.9 71 71 S 10 17 30.21 1023 10 16.0934 0 0
10:55 am 10:55 Sunny 39 4.1 29 -1.6 67 67 SSW 13 20 30.18 1022 10 16.0934 0 0
11:15 am 11:15 Sunny 41 4.9 29 -1.8 62 62 SSW 14 22 30.15 1021 10 16.0934 0 0
11:35 am 11:35 Sunny 42 5.3 29 -1.9 60 60 SSW 13 20 30.15 1021 10 16.0934 0 0
11:55 am 11:55 Sunny 43 5.9 30 -1.2 61 61 SSW 15 24 30.15 1021 10 16.0934 0 0
12:15 pm 12:15 Sunny 43 6.1 31 -0.5 63 63 SSW 10 17 30.15 1021 10 16.0934 0 0
12:35 pm 12:35 Sunny 45 7.1 32 0 61 61 SSW 8 13 30.09 1019 10 16.0934 0 0
12:55 pm 12:55 Sunny 46 8 30 -0.9 54 54 SW 13 20 30.09 1019 10 16.0934 0 0
1:15 pm 13:15 Sunny 46 7.8 31 -0.4 56 56 SW 10 17 30.09 1019 10 16.0934 0 0
1:35 pm 13:35 Sunny 46 7.9 30 -1.3 53 53 SSW 10 17 30.09 1019 10 16.0934 0 0
1:55 pm 13:55 Sunny 46 7.6 31 -0.3 58 58 SW 8 13 30.09 1019 10 16.0934 0 0
2:15 pm 14:15 Sunny 46 7.6 32 0 59 59 S 5 7 30.09 1019 10 16.0934 0 0
2:35 pm 14:35 Sunny 44 6.7 34 1.3 69 69 S 6 9 30.06 1018 10 16.0934 0 0
2:55 pm 14:55 Sunny 44 6.5 34 1.2 69 69 S 6 9 30.09 1019 10 16.0934 0 0
3:15 pm 15:15 Sunny 43 6.2 33 0.8 69 69 SSW 3 6 30.12 1020 10 16.0934 0 0
3:35 pm 15:35 Sunny 43 5.9 34 1.2 72 72 SSW 5 7 30.12 1020 10 16.0934 0 0
3:55 pm 15:55 Sunny 42 5.3 34 1.2 75 75 SSE 5 7 30.12 1020 10 16.0934 0 0
4:15 pm 16:15 Sunny 40 4.3 34 1.1 80 80 S 6 9 30.12 1020 10 16.0934 0 0
4:35 pm 16:35 Sunny 41 5.1 33 0.3 71 71 S 9 15 30.12 1020 10 16.0934 0 0
4:55 pm 16:55 Sunny 41 5 32 0 70 70 S 6 9 30.12 1020 10 16.0934 0 0
5:15 pm 17:15 Clear 40 4.6 31 -0.5 70 70 SSW 5 7 30.12 1020 10 16.0934 0 0
5:35 pm 17:35 Clear 40 4.3 31 -0.8 70 70 S 8 13 30.12 1020 10 16.0934 0 0
5:55 pm 17:55 Clear 40 4.5 30 -1.3 66 66 S 8 13 30.12 1020 10 16.0934 0 0
6:15 pm 18:15 Clear 39 3.8 29 -1.5 69 69 SSW 7 11 30.15 1021 10 16.0934 0 0
6:35 pm 18:35 Clear 39 4 29 -1.7 67 67 SSW 8 13 30.15 1021 10 16.0934 0 0
6:55 pm 18:55 Clear 40 4.7 28 -2.1 62 62 SSW 8 13 30.15 1021 10 16.0934 0 0
7:15 pm 19:15 Clear 40 4.5 28 -2.2 62 62 SSW 8 13 30.15 1021 10 16.0934 0 0
7:35 pm 19:35 Clear 41 5.2 28 -2.3 59 59 SSW 9 15 30.15 1021 10 16.0934 0 0
7:55 pm 19:55 Clear 41 5 28 -2 61 61 SW 7 11 30.18 1022 10 16.0934 0 0
8:15 pm 20:15 Clear 40 4.5 28 -2 63 63 SW 8 13 30.18 1022 10 16.0934 0 0
8:35 pm 20:35 Clear 40 4.2 29 -1.9 65 65 SW 8 13 30.18 1022 10 16.0934 0 0
8:55 pm 20:55 Clear 39 4 29 -1.8 66 66 SW 8 13 30.18 1022 10 16.0934 0 0
9:15 pm 21:15 Clear 40 4.3 28 -2 64 64 WSW 6 9 30.18 1022 10 16.0934 0 0
9:35 pm 21:35 Clear 40 4.4 28 -2 63 63 W 9 15 30.18 1022 10 16.0934 0 0
9:55 pm 21:55 Clear 39 3.7 28 -2 67 67 W 8 13 30.21 1023 10 16.0934 0 0
10:15 pm 22:15 Clear 38 3.3 28 -2 69 69 W 7 11 30.21 1023 10 16.0934 0 0
10:35 pm 22:35 Clear 37 3 28 -2.1 69 69 W 6 9 30.21 1023 10 16.0934 0 0
10:55 pm 22:55 Clear 35 1.5 28 -2 78 78 WNW 6 9 30.21 1023 10 16.0934 0 0
11:15 pm 23:15 Clear 33 0.3 29 -1.8 86 86 WNW 7 11 30.24 1024 10 16.0934 0 0
11:35 pm 23:35 Clear 32 0.1 28 -2.1 85 85 WNW 8 13 30.24 1024 10 16.0934 0 0
11:55 pm 23:55 Clear 32 0 28 -2.1 86 86 NW 8 13 30.27 1025 10 16.0934 0 0

Powered by AerisWeather